Location: Mahannah Oil Field
(37.4664°N, 96.6003°W)
Time: 10:20:18
(UTC+00:00)

deb Explorer IX - Pass Details

Date: 27 January 2021
Orbit: 538 x 1101 km, 38.8° (Epoch: 07 March)

Event Time Altitude Azimuth Distance (km) Brightness Sun altitude
Rises 00:02:44 0° 258° (WSW) 3,806 ? -4.2°
Reaches altitude 10° 00:05:35 10° 258° (WSW) 2,794 ? -4.7°
Maximum altitude 00:12:23 88° 350° (N) 922 ? -6.0°
Drops below altitude 10° 00:18:12 10° 79° (E) 2,412 ? -7.1°
Enters shadow 00:18:34 - 79° (E) 2,540 ? -7.2°
